Jackson, MN

9:55 PM CDT on May 22, 2017 (GMT -0500)
Jackson Municipal

Weather History for KMJQ - September, 2013

Change the Weather History Date:

Tuesday, September 17, 2013

  Actual Average Record
Temperature  
Mean Temperature 56 °F -  
Max Temperature 60 °F 69 °F 95 °F (2007)
Min Temperature 51 °F 47 °F 35 °F (1996)
Degree Days  
Heating Degree Days 10    
Growing Degree Days 6 (Base 50)    
Moisture  
Dew Point 52 °F    
Average Humidity 88    
Maximum Humidity 94    
Minimum Humidity 77    
Precipitation  
Precipitation 0.02 in - - ()
Sea Level Pressure  
Sea Level Pressure 30.08 in    
Wind  
Wind Speed 10 mph (SSE)    
Max Wind Speed 15 mph    
Max Gust Speed 20 mph    
Visibility 5 miles    
Events Fog , Rain    
Averages and records for this station are not official NWS values.
T = Trace of Precipitation, MM = Missing Value Source: NWS Daily Summary

Daily Weather History Graph

Daily Weather History Graph

Search for Another Location

Airport or City:

Trip Planner

Search our weather history database for the weather conditions in past years. The results will help you decide how hot, cold, wet, or windy it might be!

Date:

Astronomy

Sep. 17, 2013 Rise Set
Actual Time 7:01 AM CDT 7:26 PM CDT
Civil Twilight 6:33 AM CDT 7:54 PM CDT
Nautical Twilight 5:59 AM CDT 8:28 PM CDT
Astronomical Twilight 5:24 AM CDT 9:03 PM CDT
Moon 6:15 PM CDT (9/17) 4:54 AM CDT (9/17)
Length of Visible Light 13h 21m
Length of Day
12h 24m
Waxing Gibbous, 96% of the Moon is Illuminated
Sep 17
Waxing Gibbous
Sep 19
Full
Sep 26
Last Quarter
Oct 4
New
Oct 11
First Quarter

Hourly Weather History & Observations

Time (CDT) Temp. Dew Point Humidity Pressure Visibility Wind Dir Wind Speed Gust Speed Precip Events Conditions
12:13 AM 53.6 °F 46.4 °F 77% 30.24 in 10.0 mi SSE 10.4 mph - N/A   Clear
12:34 AM 53.6 °F 46.4 °F 77% 30.24 in 10.0 mi SSE 9.2 mph - N/A   Clear
12:53 AM 51.8 °F 46.4 °F 82% 30.24 in 10.0 mi SSE 9.2 mph - N/A   Clear
1:13 AM 51.8 °F 46.4 °F 82% 30.23 in 10.0 mi SSE 10.4 mph - N/A   Clear
1:34 AM 51.8 °F 46.4 °F 82% 30.23 in 10.0 mi South 9.2 mph - N/A   Clear
1:53 AM 51.8 °F 46.4 °F 82% 30.23 in 10.0 mi SSE 9.2 mph - N/A   Clear
2:13 AM 51.8 °F 46.4 °F 82% 30.22 in 10.0 mi South 9.2 mph - N/A   Clear
2:34 AM 51.8 °F 46.4 °F 82% 30.22 in 10.0 mi SSE 10.4 mph - N/A   Clear
2:53 AM 51.8 °F 46.4 °F 82% 30.21 in 10.0 mi South 9.2 mph - N/A   Clear
3:13 AM 51.8 °F 46.4 °F 82% 30.21 in 10.0 mi South 9.2 mph - N/A   Clear
3:33 AM 51.8 °F 46.4 °F 82% 30.20 in 10.0 mi South 8.1 mph - N/A   Clear
3:54 AM 51.8 °F 46.4 °F 82% 30.19 in 10.0 mi South 8.1 mph - N/A   Clear
4:13 AM 51.8 °F 46.4 °F 82% 30.19 in 10.0 mi South 8.1 mph - N/A   Scattered Clouds
4:33 AM 51.8 °F 46.4 °F 82% 30.18 in 10.0 mi South 5.8 mph - N/A   Overcast
4:54 AM 53.6 °F 48.2 °F 82% 30.18 in 10.0 mi South 6.9 mph - N/A   Overcast
5:13 AM 53.6 °F 48.2 °F 82% 30.17 in 10.0 mi South 6.9 mph - N/A   Overcast
5:33 AM 53.6 °F 50.0 °F 88% 30.17 in 10.0 mi South 10.4 mph - N/A   Overcast
5:54 AM 53.6 °F 50.0 °F 88% 30.17 in 10.0 mi South 11.5 mph 16.1 mph N/A   Overcast
6:13 AM 55.4 °F 50.0 °F 82% 30.16 in 10.0 mi SSE 9.2 mph - N/A   Overcast
6:33 AM 53.6 °F 50.0 °F 88% 30.16 in 10.0 mi SSE 9.2 mph - N/A   Overcast
6:54 AM 53.6 °F 50.0 °F 88% 30.16 in 10.0 mi SSE 8.1 mph - N/A   Overcast
7:13 AM 53.6 °F 50.0 °F 88% 30.16 in 10.0 mi SSE 10.4 mph - N/A   Light Drizzle
7:33 AM 53.6 °F 51.8 °F 94% 30.15 in 5.0 mi SSE 10.4 mph - 0.01 in Rain Light Rain
7:54 AM 53.6 °F 51.8 °F 94% 30.15 in 7.0 mi SSE 9.2 mph - 0.01 in Rain Light Rain
8:13 AM 53.6 °F 51.8 °F 94% 30.15 in 7.0 mi SSE 9.2 mph - N/A Rain Light Rain
8:33 AM 55.4 °F 51.8 °F 88% 30.14 in 7.0 mi SSE 10.4 mph - N/A   Overcast
8:54 AM 55.4 °F 51.8 °F 88% 30.14 in 7.0 mi SSE 9.2 mph - N/A   Overcast
9:13 AM 55.4 °F 51.8 °F 88% 30.13 in 7.0 mi SSE 11.5 mph - N/A   Overcast
9:33 AM 55.4 °F 51.8 °F 88% 30.13 in 7.0 mi SSE 11.5 mph - N/A   Overcast
9:54 AM 55.4 °F 51.8 °F 88% 30.13 in 7.0 mi SSE 11.5 mph 18.4 mph N/A   Overcast
10:13 AM 55.4 °F 51.8 °F 88% 30.12 in 7.0 mi SSE 15.0 mph 19.6 mph N/A   Overcast
10:33 AM 57.2 °F 51.8 °F 82% 30.12 in 7.0 mi SSE 10.4 mph 16.1 mph N/A   Overcast
10:54 AM 57.2 °F 53.6 °F 88% 30.12 in 7.0 mi SSE 13.8 mph 19.6 mph N/A   Overcast
11:13 AM 57.2 °F 53.6 °F 88% 30.11 in 5.0 mi SE 10.4 mph 19.6 mph N/A   Overcast
11:33 AM 55.4 °F 53.6 °F 94% 30.11 in 3.0 mi SSE 13.8 mph 19.6 mph N/A   Overcast
11:54 AM 57.2 °F 53.6 °F 88% 30.10 in 2.5 mi SSE 10.4 mph 17.3 mph N/A   Overcast
12:13 PM 57.2 °F 53.6 °F 88% 30.10 in 2.5 mi SSE 13.8 mph 17.3 mph N/A   Overcast
12:33 PM 55.4 °F 53.6 °F 94% 30.09 in 3.0 mi SSE 9.2 mph - N/A   Overcast
12:53 PM 57.2 °F 53.6 °F 88% 30.08 in 3.0 mi SSE 12.7 mph - N/A   Overcast
1:13 PM 57.2 °F 53.6 °F 88% 30.07 in 10.0 mi SSE 11.5 mph - N/A   Overcast
1:34 PM 59.0 °F 53.6 °F 82% 30.06 in 10.0 mi SE 13.8 mph 18.4 mph N/A   Overcast
1:53 PM 59.0 °F 53.6 °F 82% 30.06 in 10.0 mi SSE 13.8 mph 18.4 mph N/A   Overcast
2:13 PM 59.0 °F 53.6 °F 82% 30.04 in 5.0 mi SSE 13.8 mph 18.4 mph N/A   Overcast
2:34 PM 59.0 °F 53.6 °F 82% 30.03 in 2.5 mi SSE 13.8 mph - N/A   Overcast
2:53 PM 59.0 °F 53.6 °F 82% 30.02 in 1.5 mi SSE 13.8 mph - N/A   Overcast
3:13 PM 59.0 °F 55.4 °F 88% 30.01 in 2.0 mi SE 13.8 mph - N/A   Overcast
3:34 PM 59.0 °F 55.4 °F 88% 30.01 in 1.2 mi SE 11.5 mph 17.3 mph N/A   Overcast
3:53 PM 57.2 °F 53.6 °F 88% 30.00 in 1.5 mi SE 10.4 mph - N/A   Overcast
4:13 PM 57.2 °F 53.6 °F 88% 30.00 in 1.2 mi SE 13.8 mph - N/A   Overcast
4:34 PM 57.2 °F 55.4 °F 94% 29.99 in 1.2 mi SSE 10.4 mph - N/A   Overcast
4:53 PM 57.2 °F 55.4 °F 94% 29.98 in 0.8 mi SE 12.7 mph 19.6 mph N/A   Overcast
5:13 PM 57.2 °F 55.4 °F 94% 29.98 in 0.8 mi SE 13.8 mph 18.4 mph N/A   Overcast
5:34 PM 57.2 °F 55.4 °F 94% 29.98 in 0.8 mi SE 10.4 mph 17.3 mph N/A   Overcast
5:53 PM 57.2 °F 55.4 °F 94% 29.97 in 0.8 mi SE 13.8 mph 19.6 mph N/A   Overcast
6:13 PM 57.2 °F 55.4 °F 94% 29.96 in 0.5 mi SE 12.7 mph 19.6 mph N/A Fog Fog
6:34 PM 57.2 °F 55.4 °F 94% 29.96 in 0.5 mi SSE 10.4 mph - N/A Fog Fog
6:53 PM 57.2 °F 55.4 °F 94% 29.96 in 0.5 mi SSE 10.4 mph - N/A Fog Fog
7:14 PM 57.2 °F 55.4 °F 94% 29.96 in 0.5 mi SSE 12.7 mph 18.4 mph N/A Fog Fog
7:33 PM 57.2 °F 55.4 °F 94% 29.95 in 1.0 mi SSE 11.5 mph - N/A   Overcast
7:53 PM 57.2 °F 55.4 °F 94% 29.95 in 1.0 mi SSE 13.8 mph - N/A   Overcast
8:14 PM 59.0 °F 55.4 °F 88% 29.95 in 1.0 mi SSE 10.4 mph - N/A   Overcast
8:33 PM 59.0 °F 55.4 °F 88% 29.95 in 1.2 mi SE 9.2 mph - N/A   Overcast
8:53 PM 59.0 °F 55.4 °F 88% 29.95 in 1.5 mi SE 10.4 mph - N/A   Overcast
9:14 PM 59.0 °F 55.4 °F 88% 29.95 in 1.5 mi SSE 11.5 mph 16.1 mph N/A   Overcast
9:33 PM 59.0 °F 55.4 °F 88% 29.94 in 2.0 mi SE 11.5 mph - 0.01 in   Overcast
9:53 PM 59.0 °F 55.4 °F 88% 29.94 in 2.5 mi SSE 9.2 mph - 0.01 in   Overcast
10:13 PM 59.0 °F 55.4 °F 88% 29.94 in 2.5 mi SSE 10.4 mph - N/A   Overcast
10:34 PM 59.0 °F 57.2 °F 94% 29.94 in 2.5 mi SSE 10.4 mph - N/A   Overcast
10:53 PM 59.0 °F 57.2 °F 94% 29.93 in 3.0 mi SSE 10.4 mph - N/A   Overcast
11:13 PM 60.8 °F 57.2 °F 88% 29.93 in 2.0 mi SSE 10.4 mph - N/A   Overcast
11:34 PM 60.8 °F 59.0 °F 94% 29.92 in 0.8 mi SSE 12.7 mph - N/A   Overcast
11:53 PM 60.8 °F 59.0 °F 94% 29.92 in 0.5 mi SSE 11.5 mph - N/A Fog Fog